Time,TemperatureF,DewpointF,PressureIn,WindDirection,WindDirectionDegrees,WindSpeedMPH,WindSpeedGustMPH,Humidity,HourlyPrecipIn,Conditions,Clouds,dailyrainin,SoftwareType,DateUTC
2013-10-27 00:00:00,46.5,35.7,30.16,SW,236,0.0,0.0,66,0.00,,,0.00,Wunderground v.1.15,2013-10-27 06:00:00,
2013-10-27 00:10:00,45.6,36.0,30.16,SW,236,0.0,0.0,69,0.00,,,0.00,Wunderground v.1.15,2013-10-27 06:10:00,
2013-10-27 00:20:00,45.1,36.3,30.16,WSW,251,0.0,0.0,71,0.00,,,0.00,Wunderground v.1.15,2013-10-27 06:20:00,
2013-10-27 00:30:00,45.0,36.2,30.16,WSW,239,0.0,1.0,71,0.00,,,0.00,Wunderground v.1.15,2013-10-27 06:30:00,
2013-10-27 00:40:00,44.9,36.1,30.15,WSW,252,1.0,1.0,71,0.00,,,0.00,Wunderground v.1.15,2013-10-27 06:40:00,
2013-10-27 00:45:00,45.0,35.8,30.15,WSW,243,1.0,1.0,70,0.00,,,0.00,Wunderground v.1.15,2013-10-27 06:45:00,
2013-10-27 00:55:00,45.1,35.9,30.15,WSW,243,1.0,1.0,70,0.00,,,0.00,Wunderground v.1.15,2013-10-27 06:55:00,
2013-10-27 01:00:00,45.2,36.0,30.15,WSW,248,1.0,1.0,70,0.00,,,0.00,Wunderground v.1.15,2013-10-27 07:00:00,
2013-10-27 01:05:00,45.2,35.6,30.15,SW,236,1.0,2.0,69,0.00,,,0.00,Wunderground v.1.15,2013-10-27 07:05:00,
2013-10-27 01:25:00,43.9,35.5,30.15,WSW,257,0.0,0.0,72,0.00,,,0.00,Wunderground v.1.15,2013-10-27 07:25:00,
2013-10-27 01:30:00,43.5,35.4,30.16,WSW,245,1.0,1.0,73,0.00,,,0.00,Wunderground v.1.15,2013-10-27 07:30:00,
2013-10-27 01:35:00,43.4,35.3,30.16,WSW,252,1.0,1.0,73,0.00,,,0.00,Wunderground v.1.15,2013-10-27 07:35:00,
2013-10-27 01:45:00,43.3,35.2,30.16,SW,223,0.0,0.0,73,0.00,,,0.00,Wunderground v.1.15,2013-10-27 07:45:00,
2013-10-27 01:55:00,43.8,35.4,30.16,WSW,238,1.0,1.0,72,0.00,,,0.00,Wunderground v.1.15,2013-10-27 07:55:00,
2013-10-27 02:00:00,43.9,35.5,30.15,SW,230,0.0,0.0,72,0.00,,,0.00,Wunderground v.1.15,2013-10-27 08:00:00,
2013-10-27 02:10:00,43.8,35.4,30.15,WSW,240,0.0,0.0,72,0.00,,,0.00,Wunderground v.1.15,2013-10-27 08:10:00,
2013-10-27 02:15:00,43.4,35.3,30.15,SSW,195,0.0,1.0,73,0.00,,,0.00,Wunderground v.1.15,2013-10-27 08:15:00,
2013-10-27 02:25:00,44.4,35.6,30.16,WSW,239,1.0,1.0,71,0.00,,,0.00,Wunderground v.1.15,2013-10-27 08:25:00,
2013-10-27 02:35:00,44.0,35.6,30.15,WSW,250,0.0,1.0,72,0.00,,,0.00,Wunderground v.1.15,2013-10-27 08:35:00,
2013-10-27 02:45:00,43.7,35.6,30.15,WSW,240,0.0,0.0,73,0.00,,,0.00,Wunderground v.1.15,2013-10-27 08:45:00,
2013-10-27 02:55:00,43.1,35.4,30.14,SW,229,1.0,1.0,74,0.00,,,0.00,Wunderground v.1.15,2013-10-27 08:55:00,
2013-10-27 03:00:00,43.2,35.5,30.14,WSW,240,1.0,1.0,74,0.00,,,0.00,Wunderground v.1.15,2013-10-27 09:00:00,
2013-10-27 03:10:00,42.9,35.5,30.14,West,262,0.0,0.0,75,0.00,,,0.00,Wunderground v.1.15,2013-10-27 09:10:00,
2013-10-27 03:20:00,42.4,35.4,30.14,West,271,0.0,0.0,76,0.00,,,0.00,Wunderground v.1.15,2013-10-27 09:20:00,
2013-10-27 03:30:00,42.4,35.7,30.14,WSW,246,0.0,0.0,77,0.00,,,0.00,Wunderground v.1.15,2013-10-27 09:30:00,
2013-10-27 03:40:00,42.3,35.6,30.14,WSW,237,0.0,0.0,77,0.00,,,0.00,Wunderground v.1.15,2013-10-27 09:40:00,
2013-10-27 03:45:00,41.6,34.9,30.13,WSW,238,0.0,0.0,77,0.00,,,0.00,Wunderground v.1.15,2013-10-27 09:45:00,
2013-10-27 03:55:00,40.8,34.8,30.13,WSW,238,0.0,0.0,79,0.00,,,0.00,Wunderground v.1.15,2013-10-27 09:55:00,
2013-10-27 04:00:00,40.6,34.9,30.13,WSW,238,0.0,0.0,80,0.00,,,0.00,Wunderground v.1.15,2013-10-27 10:00:00,
2013-10-27 04:10:00,40.9,35.2,30.13,West,259,0.0,0.0,80,0.00,,,0.00,Wunderground v.1.15,2013-10-27 10:10:00,
2013-10-27 04:20:00,40.9,35.2,30.13,WSW,254,0.0,0.0,80,0.00,,,0.00,Wunderground v.1.15,2013-10-27 10:20:00,
2013-10-27 04:25:00,40.5,34.8,30.13,WSW,254,0.0,0.0,80,0.00,,,0.00,Wunderground v.1.15,2013-10-27 10:25:00,
2013-10-27 04:35:00,39.5,34.8,30.13,WSW,257,0.0,1.0,83,0.00,,,0.00,Wunderground v.1.15,2013-10-27 10:35:00,
2013-10-27 04:45:00,39.5,34.5,30.12,WSW,257,0.0,0.0,82,0.00,,,0.00,Wunderground v.1.15,2013-10-27 10:45:00,
2013-10-27 04:50:00,39.3,34.3,30.12,WSW,257,0.0,0.0,82,0.00,,,0.00,Wunderground v.1.15,2013-10-27 10:50:00,
2013-10-27 05:00:00,38.9,34.2,30.12,WSW,257,0.0,0.0,83,0.00,,,0.00,Wunderground v.1.15,2013-10-27 11:00:00,
2013-10-27 05:10:00,38.8,34.1,30.12,WSW,251,0.0,0.0,83,0.00,,,0.00,Wunderground v.1.15,2013-10-27 11:10:00,
2013-10-27 05:15:00,39.0,34.3,30.12,WSW,256,0.0,0.0,83,0.00,,,0.00,Wunderground v.1.15,2013-10-27 11:15:00,
2013-10-27 05:25:00,39.0,34.3,30.13,SW,234,0.0,0.0,83,0.00,,,0.00,Wunderground v.1.15,2013-10-27 11:25:00,
2013-10-27 05:30:00,39.0,34.3,30.13,WSW,245,0.0,0.0,83,0.00,,,0.00,Wunderground v.1.15,2013-10-27 11:30:00,
2013-10-27 05:40:00,38.7,34.0,30.12,WSW,245,0.0,0.0,83,0.00,,,0.00,Wunderground v.1.15,2013-10-27 11:40:00,
2013-10-27 05:50:00,38.7,34.0,30.12,WSW,245,0.0,0.0,83,0.00,,,0.00,Wunderground v.1.15,2013-10-27 11:50:00,
2013-10-27 05:55:00,38.6,34.2,30.12,WSW,245,0.0,0.0,84,0.00,,,0.00,Wunderground v.1.15,2013-10-27 11:55:00,
2013-10-27 06:00:00,38.5,34.1,30.12,WSW,245,0.0,0.0,84,0.00,,,0.00,Wunderground v.1.15,2013-10-27 12:00:00,
2013-10-27 06:10:00,38.5,34.1,30.12,WSW,245,0.0,0.0,84,0.00,,,0.00,Wunderground v.1.15,2013-10-27 12:10:00,
2013-10-27 06:20:00,38.3,33.9,30.12,WSW,245,0.0,0.0,84,0.00,,,0.00,Wunderground v.1.15,2013-10-27 12:20:00,
2013-10-27 06:30:00,37.7,33.6,30.12,WSW,245,0.0,0.0,85,0.00,,,0.00,Wunderground v.1.15,2013-10-27 12:30:00,
2013-10-27 06:35:00,37.3,33.5,30.12,WSW,245,0.0,0.0,86,0.00,,,0.00,Wunderground v.1.15,2013-10-27 12:35:00,
2013-10-27 06:40:00,37.7,33.9,30.11,SW,226,0.0,0.0,86,0.00,,,0.00,Wunderground v.1.15,2013-10-27 12:40:00,
2013-10-27 06:50:00,37.8,33.4,30.11,SW,236,0.0,0.0,84,0.00,,,0.00,Wunderground v.1.15,2013-10-27 12:50:00,
2013-10-27 07:00:00,37.8,33.4,30.11,WSW,238,0.0,0.0,84,0.00,,,0.00,Wunderground v.1.15,2013-10-27 13:00:00,
2013-10-27 07:10:00,37.7,33.3,30.11,WSW,239,0.0,0.0,84,0.00,,,0.00,Wunderground v.1.15,2013-10-27 13:10:00,
2013-10-27 07:20:00,37.1,32.7,30.11,WSW,255,0.0,0.0,84,0.00,,,0.00,Wunderground v.1.15,2013-10-27 13:20:00,
2013-10-27 07:30:00,36.7,32.9,30.11,WSW,256,0.0,0.0,86,0.00,,,0.00,Wunderground v.1.15,2013-10-27 13:30:00,
2013-10-27 07:40:00,37.2,33.4,30.11,WSW,258,0.0,0.0,86,0.00,,,0.00,Wunderground v.1.15,2013-10-27 13:40:00,
2013-10-27 07:50:00,38.3,33.9,30.11,WSW,257,1.0,1.0,84,0.00,,,0.00,Wunderground v.1.15,2013-10-27 13:50:00,
2013-10-27 08:00:00,40.2,35.1,30.11,WSW,247,1.0,1.0,82,0.00,,,0.00,Wunderground v.1.15,2013-10-27 14:00:00,
2013-10-27 08:10:00,42.1,36.4,30.11,WSW,247,0.0,0.0,80,0.00,,,0.00,Wunderground v.1.15,2013-10-27 14:10:00,
2013-10-27 08:20:00,43.7,37.0,30.11,WSW,247,0.0,0.0,77,0.00,,,0.00,Wunderground v.1.15,2013-10-27 14:20:00,
2013-10-27 08:30:00,45.7,37.5,30.11,WSW,247,0.0,0.0,73,0.00,,,0.00,Wunderground v.1.15,2013-10-27 14:30:00,
2013-10-27 08:40:00,47.0,38.1,30.12,WNW,288,0.0,0.0,71,0.00,,,0.00,Wunderground v.1.15,2013-10-27 14:40:00,
2013-10-27 08:50:00,48.1,38.8,30.11,NW,314,0.0,1.0,70,0.00,,,0.00,Wunderground v.1.15,2013-10-27 14:50:00,
2013-10-27 09:00:00,48.8,39.4,30.11,NW,318,0.0,0.0,70,0.00,,,0.00,Wunderground v.1.15,2013-10-27 15:00:00,
2013-10-27 09:10:00,49.9,39.4,30.12,NW,323,0.0,0.0,67,0.00,,,0.00,Wunderground v.1.15,2013-10-27 15:10:00,
2013-10-27 09:20:00,51.1,40.1,30.12,NNW,331,0.0,0.0,66,0.00,,,0.00,Wunderground v.1.15,2013-10-27 15:20:00,
2013-10-27 09:30:00,52.1,39.9,30.12,North,4,0.0,1.0,63,0.00,,,0.00,Wunderground v.1.15,2013-10-27 15:30:00,
2013-10-27 09:40:00,53.6,39.6,30.11,NNW,335,0.0,0.0,59,0.00,,,0.00,Wunderground v.1.15,2013-10-27 15:40:00,
2013-10-27 09:50:00,54.1,39.2,30.11,NNW,348,1.0,1.0,57,0.00,,,0.00,Wunderground v.1.15,2013-10-27 15:50:00,
2013-10-27 10:00:00,54.9,39.0,30.11,ENE,74,1.0,2.0,55,0.00,,,0.00,Wunderground v.1.15,2013-10-27 16:00:00,
2013-10-27 10:10:00,55.6,39.2,30.10,North,351,0.0,1.0,54,0.00,,,0.00,Wunderground v.1.15,2013-10-27 16:10:00,
2013-10-27 10:15:00,56.3,39.4,30.10,NNW,327,0.0,1.0,53,0.00,,,0.00,Wunderground v.1.15,2013-10-27 16:15:00,
2013-10-27 10:20:00,56.9,39.9,30.10,East,90,0.0,1.0,53,0.00,,,0.00,Wunderground v.1.15,2013-10-27 16:20:00,
2013-10-27 10:30:00,56.2,39.8,30.09,NNE,27,1.0,1.0,54,0.00,,,0.00,Wunderground v.1.15,2013-10-27 16:30:00,
2013-10-27 10:40:00,57.8,40.3,30.08,NE,42,0.0,2.0,52,0.00,,,0.00,Wunderground v.1.15,2013-10-27 16:40:00,
2013-10-27 10:50:00,56.8,39.4,30.08,NNE,25,2.0,2.0,52,0.00,,,0.00,Wunderground v.1.15,2013-10-27 16:50:00,
2013-10-27 11:00:00,58.4,39.8,30.07,NNW,338,0.0,1.0,50,0.00,,,0.00,Wunderground v.1.15,2013-10-27 17:00:00,
2013-10-27 11:10:00,59.3,40.7,30.07,WNW,293,1.0,1.0,50,0.00,,,0.00,Wunderground v.1.15,2013-10-27 17:10:00,
2013-10-27 11:20:00,60.1,40.3,30.06,North,356,1.0,1.0,48,0.00,,,0.00,Wunderground v.1.15,2013-10-27 17:20:00,
2013-10-27 11:30:00,61.1,40.7,30.06,NNE,23,0.0,1.0,47,0.00,,,0.00,Wunderground v.1.15,2013-10-27 17:30:00,
2013-10-27 11:40:00,61.3,40.3,30.05,SSW,196,1.0,1.0,46,0.00,,,0.00,Wunderground v.1.15,2013-10-27 17:40:00,
2013-10-27 11:50:00,62.5,39.7,30.04,East,91,1.0,1.0,43,0.00,,,0.00,Wunderground v.1.15,2013-10-27 17:50:00,
2013-10-27 12:00:00,62.3,40.1,30.04,SSE,147,1.0,2.0,44,0.00,,,0.00,Wunderground v.1.15,2013-10-27 18:00:00,
2013-10-27 12:10:00,62.2,40.0,30.03,ESE,103,1.0,3.0,44,0.00,,,0.00,Wunderground v.1.15,2013-10-27 18:10:00,
2013-10-27 12:15:00,62.0,39.8,30.03,NE,46,1.0,3.0,44,0.00,,,0.00,Wunderground v.1.15,2013-10-27 18:15:00,
2013-10-27 12:25:00,61.7,40.1,30.02,SSW,195,2.0,2.0,45,0.00,,,0.00,Wunderground v.1.15,2013-10-27 18:25:00,
2013-10-27 12:30:00,63.2,40.3,30.02,ENE,74,1.0,1.0,43,0.00,,,0.00,Wunderground v.1.15,2013-10-27 18:30:00,
2013-10-27 12:40:00,63.2,40.3,30.01,NNE,32,2.0,2.0,43,0.00,,,0.00,Wunderground v.1.15,2013-10-27 18:40:00,
2013-10-27 12:50:00,63.3,39.8,30.00,ENE,73,2.0,4.0,42,0.00,,,0.00,Wunderground v.1.15,2013-10-27 18:50:00,
2013-10-27 13:05:00,63.9,39.7,29.99,NNW,341,3.0,3.0,41,0.00,,,0.00,Wunderground v.1.15,2013-10-27 19:05:00,
2013-10-27 13:10:00,64.4,40.2,29.98,East,89,3.0,3.0,41,0.00,,,0.00,Wunderground v.1.15,2013-10-27 19:10:00,
2013-10-27 13:15:00,65.0,40.1,29.97,ENE,70,1.0,4.0,40,0.00,,,0.00,Wunderground v.1.15,2013-10-27 19:15:00,
2013-10-27 13:25:00,65.2,39.6,29.97,NW,304,3.0,3.0,39,0.00,,,0.00,Wunderground v.1.15,2013-10-27 19:25:00,
2013-10-27 13:35:00,65.5,39.9,29.95,South,190,3.0,5.0,39,0.00,,,0.00,Wunderground v.1.15,2013-10-27 19:35:00,
2013-10-27 13:40:00,65.9,40.2,29.95,SE,124,4.0,4.0,39,0.00,,,0.00,Wunderground v.1.15,2013-10-27 19:40:00,
2013-10-27 13:50:00,65.9,39.6,29.93,ESE,108,3.0,3.0,38,0.00,,,0.00,Wunderground v.1.15,2013-10-27 19:50:00,
2013-10-27 13:55:00,65.5,39.9,29.93,ENE,68,3.0,5.0,39,0.00,,,0.00,Wunderground v.1.15,2013-10-27 19:55:00,
2013-10-27 14:00:00,65.5,39.9,29.92,NE,56,3.0,6.0,39,0.00,,,0.00,Wunderground v.1.15,2013-10-27 20:00:00,
2013-10-27 14:10:00,65.6,40.0,29.91,SSE,148,3.0,3.0,39,0.00,,,0.00,Wunderground v.1.15,2013-10-27 20:10:00,
2013-10-27 14:20:00,66.8,39.7,29.91,ESE,110,3.0,5.0,37,0.00,,,0.00,Wunderground v.1.15,2013-10-27 20:20:00,
2013-10-27 14:30:00,66.1,39.1,29.90,NNE,29,4.0,5.0,37,0.00,,,0.00,Wunderground v.1.15,2013-10-27 20:30:00,
2013-10-27 14:40:00,67.5,39.6,29.90,East,80,3.0,3.0,36,0.00,,,0.00,Wunderground v.1.15,2013-10-27 20:40:00,
2013-10-27 14:50:00,67.2,38.6,29.89,ENE,75,4.0,4.0,35,0.00,,,0.00,Wunderground v.1.15,2013-10-27 20:50:00,
2013-10-27 15:00:00,67.7,39.0,29.89,SSE,165,4.0,4.0,35,0.00,,,0.00,Wunderground v.1.15,2013-10-27 21:00:00,
2013-10-27 15:10:00,67.5,38.1,29.88,ENE,59,3.0,5.0,34,0.00,,,0.00,Wunderground v.1.15,2013-10-27 21:10:00,
2013-10-27 15:20:00,67.1,37.8,29.88,ESE,115,4.0,4.0,34,0.00,,,0.00,Wunderground v.1.15,2013-10-27 21:20:00,
2013-10-27 15:30:00,67.6,38.2,29.87,ESE,103,3.0,4.0,34,0.00,,,0.00,Wunderground v.1.15,2013-10-27 21:30:00,
2013-10-27 15:40:00,67.7,38.3,29.87,East,94,3.0,3.0,34,0.00,,,0.00,Wunderground v.1.15,2013-10-27 21:40:00,
2013-10-27 15:50:00,68.0,37.8,29.86,East,82,4.0,4.0,33,0.00,,,0.00,Wunderground v.1.15,2013-10-27 21:50:00,
2013-10-27 15:55:00,67.9,37.7,29.86,East,98,3.0,4.0,33,0.00,,,0.00,Wunderground v.1.15,2013-10-27 21:55:00,
2013-10-27 16:00:00,67.9,37.7,29.86,East,96,3.0,3.0,33,0.00,,,0.00,Wunderground v.1.15,2013-10-27 22:00:00,
2013-10-27 16:10:00,67.7,37.5,29.85,South,174,3.0,3.0,33,0.00,,,0.00,Wunderground v.1.15,2013-10-27 22:10:00,
2013-10-27 16:15:00,68.0,37.0,29.85,ENE,72,3.0,5.0,32,0.00,,,0.00,Wunderground v.1.15,2013-10-27 22:15:00,
2013-10-27 16:25:00,68.0,37.0,29.84,West,271,3.0,5.0,32,0.00,,,0.00,Wunderground v.1.15,2013-10-27 22:25:00,
2013-10-27 16:35:00,67.4,37.3,29.84,South,173,4.0,4.0,33,0.00,,,0.00,Wunderground v.1.15,2013-10-27 22:35:00,
2013-10-27 16:45:00,67.7,36.8,29.84,SW,221,4.0,4.0,32,0.00,,,0.00,Wunderground v.1.15,2013-10-27 22:45:00,
2013-10-27 16:55:00,67.6,36.7,29.83,SSW,203,3.0,6.0,32,0.00,,,0.00,Wunderground v.1.15,2013-10-27 22:55:00,
2013-10-27 17:00:00,67.5,35.8,29.83,WSW,243,3.0,4.0,31,0.00,,,0.00,Wunderground v.1.15,2013-10-27 23:00:00,
2013-10-27 17:10:00,66.9,35.3,29.83,SW,217,4.0,4.0,31,0.00,,,0.00,Wunderground v.1.15,2013-10-27 23:10:00,
2013-10-27 17:20:00,67.2,36.3,29.83,SSW,207,3.0,3.0,32,0.00,,,0.00,Wunderground v.1.15,2013-10-27 23:20:00,
2013-10-27 17:30:00,67.2,36.3,29.83,SW,236,2.0,3.0,32,0.00,,,0.00,Wunderground v.1.15,2013-10-27 23:30:00,
2013-10-27 17:40:00,66.7,36.7,29.82,SW,218,3.0,4.0,33,0.00,,,0.00,Wunderground v.1.15,2013-10-27 23:40:00,
2013-10-27 17:50:00,65.8,36.6,29.82,SSW,204,3.0,3.0,34,0.00,,,0.00,Wunderground v.1.15,2013-10-27 23:50:00,
2013-10-27 18:00:00,64.5,36.2,29.82,SW,235,2.0,2.0,35,0.00,,,0.00,Wunderground v.1.15,2013-10-28 00:00:00,
2013-10-27 18:10:00,63.0,36.3,29.82,SSW,195,1.0,1.0,37,0.00,,,0.00,Wunderground v.1.15,2013-10-28 00:10:00,
2013-10-27 18:20:00,61.8,35.9,29.82,SW,215,1.0,1.0,38,0.00,,,0.00,Wunderground v.1.15,2013-10-28 00:20:00,
2013-10-27 18:30:00,60.5,36.0,29.83,SSW,213,0.0,0.0,40,0.00,,,0.00,Wunderground v.1.15,2013-10-28 00:30:00,
2013-10-27 18:40:00,59.1,36.0,29.83,SW,233,1.0,2.0,42,0.00,,,0.00,Wunderground v.1.15,2013-10-28 00:40:00,
2013-10-27 18:45:00,58.6,36.2,29.83,SW,229,1.0,2.0,43,0.00,,,0.00,Wunderground v.1.15,2013-10-28 00:45:00,
2013-10-27 18:55:00,58.2,35.8,29.82,SSW,212,2.0,2.0,43,0.00,,,0.00,Wunderground v.1.15,2013-10-28 00:55:00,
2013-10-27 19:00:00,58.2,35.8,29.83,SSW,211,2.0,2.0,43,0.00,,,0.00,Wunderground v.1.15,2013-10-28 01:00:00,
2013-10-27 19:10:00,57.6,36.4,29.83,SW,227,1.0,1.0,45,0.00,,,0.00,Wunderground v.1.15,2013-10-28 01:10:00,
2013-10-27 19:15:00,57.0,36.4,29.83,SW,219,1.0,2.0,46,0.00,,,0.00,Wunderground v.1.15,2013-10-28 01:15:00,
2013-10-27 19:25:00,56.7,36.1,29.83,SW,231,1.0,1.0,46,0.00,,,0.00,Wunderground v.1.15,2013-10-28 01:25:00,
2013-10-27 19:35:00,56.6,36.0,29.83,SW,229,1.0,1.0,46,0.00,,,0.00,Wunderground v.1.15,2013-10-28 01:35:00,
2013-10-27 19:45:00,56.3,36.3,29.83,SW,231,1.0,2.0,47,0.00,,,0.00,Wunderground v.1.15,2013-10-28 01:45:00,
2013-10-27 19:55:00,55.9,35.9,29.83,SW,231,1.0,3.0,47,0.00,,,0.00,Wunderground v.1.15,2013-10-28 01:55:00,
2013-10-27 20:00:00,55.9,35.9,29.83,SW,216,1.0,1.0,47,0.00,,,0.00,Wunderground v.1.15,2013-10-28 02:00:00,
2013-10-27 20:05:00,55.7,36.3,29.83,SW,226,1.0,1.0,48,0.00,,,0.00,Wunderground v.1.15,2013-10-28 02:05:00,
2013-10-27 20:15:00,55.0,36.2,29.83,SSW,205,1.0,1.0,49,0.00,,,0.00,Wunderground v.1.15,2013-10-28 02:15:00,
2013-10-27 20:25:00,54.4,36.1,29.84,SW,214,0.0,0.0,50,0.00,,,0.00,Wunderground v.1.15,2013-10-28 02:25:00,
2013-10-27 20:35:00,54.0,36.3,29.83,SSW,213,0.0,1.0,51,0.00,,,0.00,Wunderground v.1.15,2013-10-28 02:35:00,
2013-10-27 20:45:00,53.2,36.0,29.83,SSW,203,0.0,0.0,52,0.00,,,0.00,Wunderground v.1.15,2013-10-28 02:45:00,
2013-10-27 20:55:00,52.4,36.2,29.83,SSW,205,0.0,0.0,54,0.00,,,0.00,Wunderground v.1.15,2013-10-28 02:55:00,
2013-10-27 21:00:00,52.1,35.9,29.83,SSW,195,0.0,0.0,54,0.00,,,0.00,Wunderground v.1.15,2013-10-28 03:00:00,
2013-10-27 21:05:00,51.9,36.2,29.83,SSW,210,0.0,0.0,55,0.00,,,0.00,Wunderground v.1.15,2013-10-28 03:05:00,
2013-10-27 21:15:00,52.1,36.4,29.83,SSW,212,0.0,0.0,55,0.00,,,0.00,Wunderground v.1.15,2013-10-28 03:15:00,
2013-10-27 21:25:00,51.7,36.5,29.83,SSW,207,0.0,1.0,56,0.00,,,0.00,Wunderground v.1.15,2013-10-28 03:25:00,
2013-10-27 21:35:00,51.3,36.6,29.84,SSW,208,1.0,1.0,57,0.00,,,0.00,Wunderground v.1.15,2013-10-28 03:35:00,
2013-10-27 21:45:00,51.5,37.2,29.84,SSW,206,1.0,1.0,58,0.00,,,0.00,Wunderground v.1.15,2013-10-28 03:45:00,
2013-10-27 21:55:00,51.6,37.3,29.84,SSW,208,0.0,0.0,58,0.00,,,0.00,Wunderground v.1.15,2013-10-28 03:55:00,
2013-10-27 22:00:00,51.6,37.7,29.84,SSW,208,0.0,1.0,59,0.00,,,0.00,Wunderground v.1.15,2013-10-28 04:00:00,
2013-10-27 22:05:00,51.3,37.4,29.84,SSW,208,0.0,1.0,59,0.00,,,0.00,Wunderground v.1.15,2013-10-28 04:05:00,
2013-10-27 22:10:00,51.2,37.4,29.84,SSW,207,0.0,0.0,59,0.00,,,0.00,Wunderground v.1.15,2013-10-28 04:10:00,
2013-10-27 22:20:00,50.4,37.4,29.84,SSW,207,0.0,0.0,61,0.00,,,0.00,Wunderground v.1.15,2013-10-28 04:20:00,
2013-10-27 22:30:00,49.5,37.4,29.84,SSW,207,0.0,0.0,63,0.00,,,0.00,Wunderground v.1.15,2013-10-28 04:30:00,
2013-10-27 22:35:00,49.9,37.8,29.84,SSW,193,0.0,0.0,63,0.00,,,0.00,Wunderground v.1.15,2013-10-28 04:35:00,
2013-10-27 22:40:00,50.5,38.0,29.84,South,191,0.0,0.0,62,0.00,,,0.00,Wunderground v.1.15,2013-10-28 04:40:00,
2013-10-27 22:50:00,51.2,38.2,29.84,SSW,193,0.0,2.0,61,0.00,,,0.00,Wunderground v.1.15,2013-10-28 04:50:00,
2013-10-27 23:00:00,51.8,38.3,29.83,SSW,212,1.0,1.0,60,0.00,,,0.00,Wunderground v.1.15,2013-10-28 05:00:00,
2013-10-27 23:10:00,51.6,38.2,29.83,South,186,0.0,0.0,60,0.00,,,0.00,Wunderground v.1.15,2013-10-28 05:10:00,
2013-10-27 23:20:00,51.8,38.3,29.83,SSW,209,1.0,4.0,60,0.00,,,0.00,Wunderground v.1.15,2013-10-28 05:20:00,
2013-10-27 23:25:00,52.2,38.3,29.83,West,266,2.0,4.0,59,0.00,,,0.00,Wunderground v.1.15,2013-10-28 05:25:00,
2013-10-27 23:30:00,52.4,38.5,29.83,SW,233,2.0,3.0,59,0.00,,,0.00,Wunderground v.1.15,2013-10-28 05:30:00,
2013-10-27 23:40:00,52.3,38.4,29.83,SW,233,3.0,5.0,59,0.00,,,0.00,Wunderground v.1.15,2013-10-28 05:40:00,
2013-10-27 23:50:00,52.4,38.5,29.83,SW,229,2.0,2.0,59,0.00,,,0.00,Wunderground v.1.15,2013-10-28 05:50:00,